Address 0xf44fbfafdb7e2f0b78060aa4e1330eab0525fab9 3

Txn Hash Method
Block
From
To
Value [Txn Fee]
0xe68ed342a75e22f0a97e81d541c35aa0653b07d5809eb2ae4e8fefb187fddab5Claim159896462022-01-19 3:51:0748 mins ago0xf44fbfafdb7e2f0b78060aa4e1330eab0525fab9OUT 0xccc8edf11a7726b55fb4b78e9b547feb849fcd400 BNB0.00155379
0x1eba11e585f034faae5ce7e96eee921bcd4af962f9c81d6abfeb315603fcfcf9Withdraw159896182022-01-19 3:49:4349 mins ago0xf44fbfafdb7e2f0b78060aa4e1330eab0525fab9OUT 0xccc8edf11a7726b55fb4b78e9b547feb849fcd400 BNB0.00471074
0x49c5a898449e9b59a0b1dc063f5d265d964859932fcc5ba278ec358b72cdf08bClaim159893212022-01-19 3:34:521 hr 4 mins ago0xf44fbfafdb7e2f0b78060aa4e1330eab0525fab9OUT 0xccc8edf11a7726b55fb4b78e9b547feb849fcd400 BNB0.00155379
0xa467b13d5e1ff6e52b0469f2813e842c137f2f7b5023c113dd52fc3f59ff86ecStake159892702022-01-19 3:32:191 hr 6 mins ago0xf44fbfafdb7e2f0b78060aa4e1330eab0525fab9OUT 0xccc8edf11a7726b55fb4b78e9b547feb849fcd400 BNB0.00517748
0x34394fc38149807e37b10d1ddbb30b55f095a77e69ed0c1db5ef26750002c1bbStake159892482022-01-19 3:31:131 hr 7 mins ago0xf44fbfafdb7e2f0b78060aa4e1330eab0525fab9OUT 0xccc8edf11a7726b55fb4b78e9b547feb849fcd400 BNB0.00517747
0x7c1088ede78f498357aece59376f596abbb2282242650fbbeaeb18fd87d0f18aStake159892242022-01-19 3:30:011 hr 9 mins ago0xf44fbfafdb7e2f0b78060aa4e1330eab0525fab9OUT 0xccc8edf11a7726b55fb4b78e9b547feb849fcd400 BNB0.00500951
0x81521ec61bc48b6c0f1eb5c3abe11603775e0af963284873bf0bf685363ccec9Stake159891972022-01-19 3:28:401 hr 10 mins ago0xf44fbfafdb7e2f0b78060aa4e1330eab0525fab9OUT 0xccc8edf11a7726b55fb4b78e9b547feb849fcd400 BNB0.00517755
0xec0c6f26165234a180798dca75e48a2fe72d6e42da74c81902b3e799d28ab959Stake159891712022-01-19 3:27:221 hr 11 mins ago0xf44fbfafdb7e2f0b78060aa4e1330eab0525fab9OUT 0xccc8edf11a7726b55fb4b78e9b547feb849fcd400 BNB0.00541159
0xca68479fa9dd031bd0407d5ac8092e6354f4509734969b5623d7c508b226b2dfStake159890712022-01-19 3:22:221 hr 16 mins ago0xf44fbfafdb7e2f0b78060aa4e1330eab0525fab9OUT 0xccc8edf11a7726b55fb4b78e9b547feb849fcd400 BNB0.00515963
0x062c1931eab6a36beff144bf2a1f13688eb7d988826ed748dfeed579f6416397Claim159886932022-01-19 3:03:281 hr 35 mins ago0xf44fbfafdb7e2f0b78060aa4e1330eab0525fab9OUT 0xccc8edf11a7726b55fb4b78e9b547feb849fcd400 BNB0.00155379
0x7c2fbb0d6d76f03a231a4148f1469cdd752f4cbdabb7c2beedf6d05380cf6290Stake159886652022-01-19 3:02:041 hr 37 mins ago0xf44fbfafdb7e2f0b78060aa4e1330eab0525fab9OUT 0xccc8edf11a7726b55fb4b78e9b547feb849fcd400 BNB0.00515967
0x58c68cdcb88c1e45cc400b6ce4b7a0a5204b59321846edf8d8158292dfaae700Claim159878592022-01-19 2:21:462 hrs 17 mins ago0xf44fbfafdb7e2f0b78060aa4e1330eab0525fab9OUT 0xccc8edf11a7726b55fb4b78e9b547feb849fcd400 BNB0.00155379
0x1507c7cefaf985fecdeb609476be83f21efb6e42b4c8c484f9005b84fcd28e32Withdraw159878322022-01-19 2:20:252 hrs 18 mins ago0xf44fbfafdb7e2f0b78060aa4e1330eab0525fab9OUT 0xccc8edf11a7726b55fb4b78e9b547feb849fcd400 BNB0.00501093
0x2e03b4d76509b81d39322625ec9f33a24fa81d05083ffc40dfdcb1c6e8e42f29Claim159876722022-01-19 2:12:252 hrs 26 mins ago0xf44fbfafdb7e2f0b78060aa4e1330eab0525fab9OUT 0xccc8edf11a7726b55fb4b78e9b547feb849fcd400 BNB0.00166179
0x1b0c29f377b0bf032e660e342e8f84f5c706fe3b8be88052b8c6d53636d27539Claim159876542022-01-19 2:11:312 hrs 27 mins ago0xf44fbfafdb7e2f0b78060aa4e1330eab0525fab9OUT 0xccc8edf11a7726b55fb4b78e9b547feb849fcd400 BNB0.00155379
0x8334db62f6bc816d685c5a0ad69e3bb6979789dec2425031d7c59ba224a8cb88Stake159873722022-01-19 1:57:252 hrs 41 mins ago0xf44fbfafdb7e2f0b78060aa4e1330eab0525fab9OUT 0xccc8edf11a7726b55fb4b78e9b547feb849fcd400 BNB0.00541167
0xe04bcf766ae91b0461c65a02fae2d3d72a32cbfa5d11a2c8beeb2035c601570aStake159873652022-01-19 1:57:042 hrs 42 mins ago0xf44fbfafdb7e2f0b78060aa4e1330eab0525fab9OUT 0xccc8edf11a7726b55fb4b78e9b547feb849fcd400 BNB0.00517771
0x15c6ec24ed99938bfc976851cf1c479fbff3d3d51ab24a7bd1e2729d8ece9763Stake159873562022-01-19 1:56:372 hrs 42 mins ago0xf44fbfafdb7e2f0b78060aa4e1330eab0525fab9OUT 0xccc8edf11a7726b55fb4b78e9b547feb849fcd400 BNB0.00517775
0x953626fa5c74c8df0b178180a1c1ebd9970869f85a4739ef62acbde8f606a31aStake159873492022-01-19 1:56:162 hrs 42 mins ago0xf44fbfafdb7e2f0b78060aa4e1330eab0525fab9OUT 0xccc8edf11a7726b55fb4b78e9b547feb849fcd400 BNB0.00532779
0xe4c0a0c36caab52e658b9e0e023aa7673878061c67bb4fe9eed59be3c6d1fa98Stake159873432022-01-19 1:55:582 hrs 43 mins ago0xf44fbfafdb7e2f0b78060aa4e1330eab0525fab9OUT 0xccc8edf11a7726b55fb4b78e9b547feb849fcd400 BNB0.00517783
0x9da149b16752d5b875da6610fc3a7b182290d9e0bbbdb038d0d79b53aecc42b0Stake159873382022-01-19 1:55:432 hrs 43 mins ago0xf44fbfafdb7e2f0b78060aa4e1330eab0525fab9OUT 0xccc8edf11a7726b55fb4b78e9b547feb849fcd400 BNB0.00517787
0x0a435aadce410b12382e065867a3ea58cac833bf52a80a490370d7bd2c17b8d5Stake159873292022-01-19 1:55:162 hrs 43 mins ago0xf44fbfafdb7e2f0b78060aa4e1330eab0525fab9OUT 0xccc8edf11a7726b55fb4b78e9b547feb849fcd400 BNB0.00541191
0x8b5594304b57a88d4c167d504e781bc8ba64a98f5daa2c3dc06fceea9da781aeStake159873202022-01-19 1:54:492 hrs 44 mins ago0xf44fbfafdb7e2f0b78060aa4e1330eab0525fab9OUT 0xccc8edf11a7726b55fb4b78e9b547feb849fcd400 BNB0.00541195
0x625f8a12b8910153ce8702bf71d43f10717bae7eacd08cd4636bbc2bcd2ac600Stake159872982022-01-19 1:53:432 hrs 45 mins ago0xf44fbfafdb7e2f0b78060aa4e1330eab0525fab9OUT 0xccc8edf11a7726b55fb4b78e9b547feb849fcd400 BNB0.00517799
0x79a462d3124170e66f26868ac12c0f0c0ce693bcf47f1cba46d8865a664edf0aStake159872312022-01-19 1:50:222 hrs 48 mins ago0xf44fbfafdb7e2f0b78060aa4e1330eab0525fab9OUT 0xccc8edf11a7726b55fb4b78e9b547feb849fcd400 BNB0.00541203
[ Download CSV Export 
Latest 1 internal transaction
Parent Txn Hash Block From To Value
0xc576f6bc91e30bfacc87271a3f1218ae41b64cf0629c43ba31461c492a256632149604932021-12-14 8:05:5535 days 20 hrs ago 0x0b0ed95b7fa908280c4fc17f6058e8fb6be1dd530xf44fbfafdb7e2f0b78060aa4e1330eab0525fab93.1 BNB
[ Download CSV Export 
Loading

Contract Name:
0 BNB

Compiler Version
0

Optimization Enabled:
0 BNB

Other Settings:
-NA-
Block Transaction Gas Used Reward
Age Block Fee Address BC Fee Address Voting Power Jailed Incoming
Block Uncle Number Difficulty Gas Used Reward
Loading